Location: Fort Wayne
(41.1310°N, 85.1290°W)
Time: 15:13:59
(UTC-04:00)

Gbstr 26 Del rocket - Visible Passes

Search period start: 03 September 2015 00:00
Search period end: 13 September 2015 00:00
Orbit: 494 x 1270 km, 51.8° (Epoch: 02 September)

Date Brightness Start Highest point End Pass type
(mag) Time Alt. Az. Time Alt. Az. Time Alt. Az.
03 Sep 5.7 04:35:27 18° SSE 04:38:08 23° ESE 04:43:44 10° ENE visible
03 Sep 4.4 06:18:05 10° SW 06:24:43 87° SE 06:32:39 10° NE visible
04 Sep 5.4 04:32:20 24° SSE 04:34:18 29° SE 04:40:27 10° ENE visible
04 Sep 4.3 06:14:58 13° WSW 06:21:06 82° NW 06:29:02 10° NE visible
05 Sep 5.0 04:29:09 32° SSE 04:30:29 35° SE 04:37:04 10° ENE visible
05 Sep 4.4 06:11:47 15° WSW 06:17:32 72° NNW 06:25:24 10° NE visible
06 Sep 4.7 04:25:54 41° SSE 04:26:41 43° SE 04:33:35 10° ENE visible
06 Sep 4.5 06:08:32 16° WSW 06:13:59 63° NNW 06:21:47 10° NE visible
07 Sep 4.4 04:22:37 52° SE 04:22:56 53° SE 04:30:04 10° ENE visible
07 Sep 4.6 06:05:14 17° W 06:10:28 56° NNW 06:18:10 10° NE visible
08 Sep 4.2 04:19:16 64° SE 04:19:16 64° SE 04:26:30 10° ENE visible
08 Sep 4.8 06:01:53 17° W 06:06:59 50° NNW 06:14:34 10° NE visible
09 Sep 6.6 02:33:15 10° E 02:33:15 10° E 02:33:23 10° E visible
09 Sep 4.0 04:15:52 74° ESE 04:15:52 74° ESE 04:22:54 10° NE visible
09 Sep 4.9 05:58:29 17° W 06:03:32 46° NNW 06:10:59 10° NE visible
10 Sep 6.5 02:29:50 12° ENE 02:29:50 12° ENE 02:30:20 10° ENE visible
10 Sep 4.1 04:12:26 77° ENE 04:12:26 77° ENE 04:19:17 10° NE visible
10 Sep 5.1 05:55:03 16° WNW 06:00:05 42° NNW 06:07:25 10° NE visible
11 Sep 6.5 02:26:22 12° ENE 02:26:22 12° ENE 02:27:04 10° ENE visible
11 Sep 4.2 04:08:59 70° NNE 04:08:59 70° NNE 04:15:39 10° NE visible
11 Sep 5.2 05:51:35 16° WNW 05:56:39 39° N 06:03:53 10° ENE visible
12 Sep 6.4 02:22:53 13° ENE 02:22:53 13° ENE 02:23:41 10° ENE visible
12 Sep 4.3 04:05:30 62° N 04:05:30 62° N 04:12:01 10° NE visible
12 Sep 5.3 05:48:06 15° WNW 05:53:14 37° N 06:00:23 10° ENE visible
